Snowfall_Accumulation
0.0 0.0 0.4 0.0 0.0 0.0 0.0 0.0 0.0 0.0 0.0 0.0 0.0 0.0 0.0 0.0 0.0 0.0 0.0 0.0 0.0 0.0 0.0 0.0 0.0 0.0 0.0 0.0 0.0 0.0 0.0 0.0 0.0 0.0 0.0 0.0 0.0 0.0 0.0 0.0 0.0 0.0 0.0 0.0
0.2 0.2 0.0 0.0 0.0 0.0 0.0 0.1 0.2 0.0 0.0 0.0 0.0 0.0 0.0 0.0 0.0 0.0 0.0 0.0 0.0 0.0 0.0 0.0 0.0 0.0 0.0 0.0 0.0 0.0 0.0 0.0 0.0 0.0 0.0 0.0 0.0 0.0 0.0 0.0 0.0 0.0 0.0 0.0
0.3 0.0 0.0 0.0 0.0 0.1 0.0 0.1 0.0 0.0 0.0 0.0 0.0 0.0 0.0 0.0 0.0 0.0 0.0 0.0 0.0 0.0 0.0 0.0 0.0 0.0 0.0 0.0 0.0 0.0 0.0 0.0 0.0 0.0 0.0 0.0 0.0 0.0 0.0 0.0 0.0 0.0 0.0 0.0
0.1 0.0 0.0 0.0 0.2 0.1 1.7 0.0 0.0 0.1 0.7 0.8 0.0 2.7 0.0 0.0 0.0 0.0 0.0 0.0 0.0 0.0 0.0 0.0 0.0 0.0 0.0 0.0 0.0 0.0 0.0 0.0 0.0 0.0 0.0 0.0 0.0 0.0 0.0 0.0 0.0 0.0 0.0 0.0
0.5 0.0 0.2 2.6 0.1 0.0 2.6 0.0 0.3 0.5 0.6 0.3 0.0 1.4 0.0 0.0 0.0 0.0 0.0 0.0 0.0 0.0 0.0 0.0 0.0 0.0 0.0 0.0 0.0 0.0 0.0 0.0 0.0 0.0 0.0 0.0 0.0 0.0 0.0 0.0 0.0 0.0 0.0 0.0
0.6 0.0 0.9 0.6 0.0 0.2 0.2 0.7 0.1 0.2 0.5 13.2 0.0 0.1 0.0 0.0 0.0 0.0 0.0 0.0 0.0 0.0 0.0 0.0 0.0 0.0 0.0 0.0 0.0 0.0 0.0 0.0 0.0 0.0 0.0 0.0 0.0 0.0 0.0 0.0 0.0 0.0 0.0 0.0
0.3 0.3 0.1 0.1 1.2 0.1 1.3 1.2 15.5 21.6 28.1 10.1 0.0 0.1 0.0 0.0 0.0 0.0 0.0 0.0 0.0 0.0 0.0 0.0 0.0 0.0 0.0 0.0 0.0 0.0 0.0 0.0 0.0 0.0 0.0 0.0 0.0 0.0 0.0 0.0 0.0 0.0 0.0 0.0
5.1 8.0 2.0 1.4 1.2 1.8 0.6 1.3 4.6 7.1 6.6 2.7 0.0 4.5 0.0 0.0 0.0 0.0 0.0 0.0 0.0 0.0 0.0 0.0 0.0 0.0 0.0 0.0 0.0 0.0 0.0 0.0 0.0 0.0 0.0 0.0 0.0 0.0 0.0 0.0 0.0 0.0 0.0 0.0
6.8 3.8 0.2 0.9 1.2 0.4 0.6 2.1 0.0 2.6 3.2 1.8 1.8 0.1 0.0 0.0 0.0 0.0 0.0 0.0 0.0 0.0 0.0 0.0 0.0 0.0 0.0 0.0 0.0 0.0 0.0 0.0 0.0 0.0 0.0 0.0 0.0 0.0 0.0 0.0 0.0 0.0 0.0 0.0
3.5 9.7 0.0 0.2 1.7 0.5 0.4 0.0 2.6 3.3 12.5 6.0 0.8 0.3 0.0 0.0 0.0 0.0 0.0 0.0 0.0 0.0 0.0 0.0 0.0 0.0 0.0 0.0 0.0 0.0 0.0 0.0 0.0 0.0 0.0 0.0 0.0 0.0 0.0 0.0 0.0 0.0 0.0 0.0
0.7 4.9 1.6 0.5 6.0 3.1 0.8 0.1 0.1 0.1 2.9 8.9 5.0 2.9 0.8 0.0 0.0 0.0 0.0 0.0 0.0 0.0 0.0 0.0 0.0 0.0 0.0 0.0 0.0 0.0 0.0 0.0 0.0 0.0 0.0 0.0 0.0 0.0 0.0 0.0 0.0 0.0 0.0 0.0
0.5 3.8 9.0 8.9 3.9 0.8 0.5 2.8 1.0 4.9 3.5 3.4 4.9 3.0 0.1 0.0 0.0 0.0 0.0 0.0 0.0 0.0 0.0 0.0 0.0 0.0 0.0 0.0 0.0 0.0 0.0 0.0 0.0 0.0 0.0 0.0 0.0 0.0 0.0 0.0 0.0 0.0 0.0 0.0
0.8 1.7 9.4 8.4 4.4 0.3 1.8 1.0 1.8 0.5 1.4 4.4 7.6 5.4 0.0 0.0 0.0 0.0 0.0 0.0 0.0 0.0 0.0 0.0 0.0 0.0 0.0 0.0 0.0 0.0 0.0 0.0 0.0 0.0 0.0 0.0 0.0 0.0 0.0 0.0 0.0 0.0 0.0 0.0
nan 1.2 5.0 10.2 8.6 5.3 5.3 2.0 0.7 1.1 14.6 6.8 3.8 1.6 0.3 0.1 0.0 0.0 0.0 0.0 0.0 0.0 0.0 0.0 0.0 0.0 0.0 0.0 0.0 0.0 0.0 0.0 0.0 0.0 0.0 0.0 0.0 0.0 0.0 0.0 0.0 0.0 0.0 0.0
0.4 5.9 2.5 4.2 4.6 5.9 7.6 4.0 1.6 3.0 5.5 5.1 3.6 2.5 1.2 0.3 0.0 0.0 0.0 0.0 0.0 0.0 0.0 0.0 0.0 0.0 0.0 0.0 0.0 0.0 0.0 0.0 0.0 0.0 0.0 0.0 0.0 0.0 0.0 0.0 0.0 0.0 0.0 0.0
0.1 5.4 3.0 4.3 3.6 6.4 7.5 3.7 2.6 1.6 2.0 2.3 3.1 3.2 1.4 0.7 0.0 0.1 0.0 0.0 0.0 0.0 0.0 0.0 0.0 0.0 0.0 0.0 0.0 0.0 0.0 0.0 0.0 0.0 0.0 0.0 0.0 0.0 0.0 0.0 0.0 0.0 0.0 0.0
0.9 4.2 8.0 16.7 3.7 2.5 14.3 9.5 5.3 5.5 4.9 2.4 5.0 7.9 3.1 3.6 1.3 0.6 0.2 0.0 0.0 0.0 0.0 0.0 0.0 0.0 0.0 0.0 0.0 0.0 0.0 0.0 0.0 0.0 0.0 0.0 0.0 0.0 0.0 0.0 0.0 0.1 0.0 0.0
1.0 3.5 4.9 19.5 7.9 43.9 9.8 5.8 5.2 9.6 6.8 5.8 3.4 4.9 4.2 4.8 2.3 1.8 0.8 0.3 0.3 0.1 0.1 0.1 0.1 0.0 0.0 0.0 0.0 0.0 0.0 0.0 0.0 0.0 0.0 0.0 0.1 0.3 0.3 0.3 0.3 0.3 0.1 0.1
0.6 2.9 21.7 36.0 20.9 4.2 1.2 7.5 9.1 6.4 10.7 8.5 6.8 5.6 4.7 1.2 0.2 4.8 4.3 1.9 2.1 1.4 0.8 1.0 0.7 0.5 0.2 0.3 0.1 0.0 0.2 0.3 0.4 0.9 0.8 0.7 0.3 0.4 0.3 0.3 0.2 0.2 0.2 0.2
0.3 1.2 3.9 25.3 27.6 30.7 7.2 3.9 1.6 2.5 10.1 8.7 9.9 8.6 5.9 0.0 5.4 11.7 7.5 3.7 3.5 2.8 2.1 1.7 1.2 0.8 0.6 0.9 0.5 0.3 0.4 0.4 0.7 0.8 0.8 0.8 0.5 0.6 0.6 0.4 0.5 0.5 0.5 0.4
10.8 13.2 25.7 20.3 20.7 9.8 4.3 0.8 0.0 6.7 11.8 11.1 9.7 10.0 1.9 3.4 5.0 6.6 3.5 3.1 3.0 2.8 2.8 1.9 1.9 1.8 1.4 1.3 1.6 1.3 0.9 1.2 0.6 0.6 0.3 0.3 0.4 0.8 0.3 0.4 0.3 0.5 0.7 0.4
6.0 13.5 25.5 16.7 22.0 32.9 2.2 0.0 3.9 8.5 6.8 8.5 7.0 5.0 4.4 6.5 6.3 4.9 4.0 4.2 3.2 3.1 1.7 1.3 0.5 0.3 0.2 0.1 0.1 0.2 0.3 0.4 0.6 0.8 0.9 1.1 1.7 1.0 0.9 2.8 1.5 2.3 1.9 2.1
6.1 2.1 5.1 3.2 6.1 3.7 3.6 4.2 4.9 5.3 5.3 5.1 2.9 2.1 0.8 0.6 1.0 0.2 0.1 0.0 0.0 0.0 0.0 0.0 0.1 0.1 0.1 0.4 0.4 0.6 0.8 0.9 1.6 2.9 4.4 3.8 3.0 2.5 2.3 3.7 2.4 4.1 2.9 4.1
0.4 0.0 1.2 1.8 1.4 3.2 4.1 2.3 2.3 2.3 0.8 0.2 0.0 0.0 0.0 0.0 0.0 0.0 0.0 0.0 0.0 0.1 0.1 0.2 0.5 0.7 0.6 0.5 0.6 0.5 0.8 1.3 5.4 5.2 2.8 2.0 2.5 1.5 1.8 2.6 3.0 4.6 4.4 4.2
0.3 0.1 0.2 1.1 1.0 1.8 1.1 0.7 1.0 1.2 1.1 0.2 0.0 0.0 0.0 0.0 0.0 0.0 0.1 0.1 0.1 0.2 0.3 0.6 0.7 0.7 0.8 0.8 0.8 1.6 1.6 2.3 2.8 3.4 2.2 2.6 3.2 3.3 2.2 2.0 3.2 2.9 1.4 3.5
0.1 0.3 0.5 1.5 0.8 0.7 0.3 0.0 0.0 0.0 0.1 0.0 0.0 0.0 0.1 0.0 0.0 0.1 0.2 0.1 0.2 0.4 0.6 1.1 1.4 1.3 1.4 2.0 2.4 3.5 4.4 3.7 4.2 2.4 3.8 3.4 3.2 3.3 3.0 3.4 4.4 nan nan nan
Water_Equivalent
0.00 0.00 0.14 0.00 0.00 0.00 0.00 0.01 0.00 0.00 0.00 0.00 0.00 0.00 0.00 0.00 0.00 0.00 0.00 0.00 0.00 0.00 0.00 0.00 0.00 0.00 0.00 0.00 0.00 0.00 0.00 0.00 0.00 0.00 0.00 0.00 0.00 0.00 0.00 0.00 0.00 0.00 0.00 0.00
0.05 0.03 0.00 0.00 0.00 0.00 0.00 0.02 0.05 0.00 0.00 0.00 0.00 0.00 0.00 0.00 0.00 0.00 0.00 0.00 0.00 0.00 0.00 0.00 0.00 0.00 0.00 0.00 0.00 0.00 0.00 0.00 0.00 0.00 0.00 0.00 0.00 0.00 0.00 0.00 0.00 0.00 0.00 0.00
0.07 0.00 0.00 0.00 0.02 0.02 0.01 0.04 0.00 0.00 0.00 0.00 0.00 0.01 0.00 0.00 0.00 0.00 0.00 0.00 0.00 0.00 0.00 0.00 0.00 0.00 0.00 0.00 0.00 0.00 0.00 0.00 0.00 0.00 0.00 0.00 0.00 0.00 0.00 0.00 0.00 0.00 0.00 0.00
0.02 0.00 0.00 0.00 0.05 0.04 0.30 0.00 0.00 0.04 0.17 0.18 0.00 0.66 0.00 0.00 0.00 0.00 0.00 0.00 0.00 0.00 0.00 0.00 0.00 0.00 0.00 0.00 0.00 0.00 0.00 0.00 0.00 0.00 0.00 0.00 0.00 0.00 0.00 0.00 0.00 0.00 0.00 0.00
0.09 0.01 0.04 0.39 0.01 0.00 0.40 0.00 0.05 0.07 0.15 0.05 0.01 0.20 0.00 0.00 0.00 0.00 0.00 0.00 0.00 0.00 0.00 0.00 0.00 0.00 0.00 0.00 0.00 0.00 0.00 0.00 0.00 0.00 0.00 0.00 0.00 0.00 0.00 0.00 0.00 0.00 0.00 0.00
0.11 0.00 0.18 0.10 0.00 0.03 0.03 0.11 0.02 0.05 0.14 2.33 0.01 0.01 0.00 0.00 0.00 0.00 0.00 0.00 0.00 0.00 0.00 0.00 0.00 0.00 0.00 0.00 0.00 0.00 0.00 0.00 0.00 0.00 0.00 0.00 0.00 0.00 0.00 0.00 0.00 0.00 0.00 0.00
0.06 0.06 0.02 0.01 0.21 0.02 0.24 0.21 2.58 3.68 4.42 1.62 0.00 0.04 0.00 0.00 0.00 0.00 0.00 0.00 0.00 0.00 0.00 0.00 0.00 0.00 0.00 0.00 0.00 0.00 0.00 0.00 0.00 0.00 0.00 0.00 0.00 0.00 0.00 0.00 0.00 0.00 0.00 0.00
0.88 1.53 0.37 0.33 0.21 0.25 0.09 0.21 0.75 0.88 0.95 0.43 0.00 0.89 0.00 0.00 0.00 0.00 0.00 0.00 0.00 0.00 0.00 0.00 0.00 0.00 0.00 0.00 0.00 0.00 0.00 0.00 0.00 0.00 0.00 0.00 0.00 0.00 0.00 0.00 0.00 0.00 0.00 0.00
0.94 0.61 0.04 0.18 0.25 0.08 0.09 0.38 0.00 0.49 0.63 0.35 0.42 0.02 0.00 0.00 0.00 0.00 0.00 0.00 0.00 0.00 0.00 0.00 0.00 0.00 0.00 0.00 0.00 0.00 0.00 0.00 0.00 0.00 0.00 0.00 0.00 0.00 0.00 0.00 0.00 0.00 0.00 0.00
0.47 1.19 0.01 0.04 0.41 0.11 0.08 0.00 0.49 0.79 1.90 0.83 0.15 0.06 0.00 0.00 0.00 0.00 0.00 0.00 0.00 0.00 0.00 0.00 0.00 0.00 0.00 0.00 0.00 0.00 0.00 0.00 0.00 0.00 0.00 0.00 0.00 0.00 0.00 0.00 0.00 0.00 0.00 0.00
0.11 0.63 0.33 0.10 1.43 0.68 0.15 0.03 0.02 0.04 0.55 1.18 0.66 0.47 0.27 0.00 0.00 0.00 0.00 0.00 0.00 0.00 0.00 0.00 0.00 0.00 0.00 0.00 0.00 0.00 0.00 0.00 0.00 0.00 0.00 0.00 0.00 0.00 0.00 0.00 0.00 0.00 0.00 0.00
0.07 0.47 1.37 1.49 0.80 0.17 0.09 0.47 0.16 1.17 0.68 0.64 0.79 0.49 0.03 0.00 0.00 0.00 0.00 0.00 0.00 0.00 0.00 0.00 0.00 0.00 0.00 0.00 0.00 0.00 0.00 0.00 0.00 0.00 0.00 0.00 0.00 0.00 0.00 0.00 0.00 0.00 0.00 0.00
0.12 0.34 1.72 1.47 0.78 0.06 0.32 0.17 0.30 0.07 0.30 0.86 1.37 0.90 0.00 0.00 0.00 0.00 0.00 0.00 0.00 0.00 0.00 0.00 0.00 0.00 0.00 0.00 0.00 0.00 0.00 0.00 0.00 0.00 0.00 0.00 0.00 0.00 0.00 0.00 0.00 0.00 0.00 0.00
nan 0.15 0.64 1.20 1.11 0.84 0.74 0.35 0.10 0.22 2.82 1.17 0.65 0.31 0.06 0.01 0.01 0.00 0.00 0.00 0.00 0.00 0.00 0.00 0.00 0.00 0.00 0.00 0.00 0.00 0.00 0.00 0.00 0.00 0.00 0.00 0.00 0.00 0.00 0.00 0.00 0.00 0.00 0.00
0.05 1.06 0.31 0.58 0.62 0.89 1.20 0.62 0.23 0.41 0.83 0.90 0.61 0.46 0.27 0.05 0.01 0.00 0.00 0.00 0.00 0.00 0.00 0.00 0.00 0.00 0.00 0.00 0.00 0.00 0.00 0.00 0.00 0.00 0.00 0.00 0.00 0.00 0.00 0.00 0.00 0.00 0.00 0.00
0.01 1.13 0.36 0.74 0.58 0.99 1.08 0.50 0.38 0.24 0.28 0.38 0.55 0.56 0.24 0.15 0.01 0.02 0.01 0.00 0.00 0.00 0.00 0.00 0.00 0.00 0.00 0.00 0.00 0.00 0.00 0.00 0.00 0.00 0.00 0.00 0.00 0.00 0.00 0.00 0.00 0.00 0.00 0.00
0.12 0.61 1.98 3.57 0.51 0.35 2.48 1.10 0.69 0.80 0.66 0.36 0.64 1.26 0.55 0.62 0.29 0.19 0.07 0.02 0.00 0.00 0.00 0.00 0.00 0.00 0.00 0.00 0.00 0.00 0.00 0.00 0.00 0.00 0.00 0.00 0.01 0.01 0.01 0.01 0.01 0.02 0.01 0.00
0.14 0.59 1.05 4.29 1.94 7.06 1.31 0.86 0.78 1.27 0.93 0.77 0.50 0.80 0.79 0.92 0.45 0.42 0.21 0.10 0.12 0.06 0.04 0.04 0.03 0.00 0.01 0.00 0.00 0.00 0.00 0.00 0.00 0.00 0.01 0.01 0.02 0.07 0.08 0.06 0.07 0.07 0.04 0.03
0.10 0.40 4.49 6.43 3.57 0.63 0.19 0.92 1.03 0.73 1.27 1.16 0.88 0.80 0.89 0.30 0.03 0.87 0.89 0.41 0.46 0.29 0.18 0.20 0.14 0.08 0.03 0.05 0.01 0.01 0.03 0.06 0.07 0.13 0.13 0.12 0.08 0.12 0.08 0.08 0.05 0.04 0.04 0.04
0.08 0.17 0.61 5.41 5.31 4.17 0.78 0.49 0.25 0.41 1.21 1.18 1.45 1.26 1.04 0.02 0.69 1.80 1.55 0.63 0.57 0.41 0.29 0.24 0.17 0.13 0.11 0.17 0.09 0.07 0.08 0.09 0.11 0.13 0.12 0.13 0.13 0.14 0.15 0.11 0.12 0.12 0.12 0.10
2.28 3.19 5.36 4.21 4.19 1.74 0.53 0.12 0.00 0.82 1.20 1.50 1.42 1.44 0.25 0.35 0.64 1.08 0.57 0.45 0.42 0.38 0.39 0.28 0.28 0.25 0.26 0.26 0.27 0.20 0.16 0.19 0.13 0.12 0.08 0.07 0.08 0.15 0.07 0.08 0.07 0.10 0.13 0.07
1.04 2.48 4.93 3.37 4.31 4.82 0.30 0.01 0.34 0.91 0.90 1.20 0.99 0.69 0.53 0.89 0.91 0.69 0.55 0.58 0.43 0.40 0.22 0.23 0.09 0.06 0.05 0.03 0.03 0.04 0.04 0.05 0.07 0.10 0.11 0.14 0.26 0.17 0.14 0.51 0.26 0.44 0.33 0.36
0.94 0.32 0.99 0.43 0.95 0.52 0.48 0.51 0.66 0.73 0.73 0.73 0.40 0.27 0.10 0.07 0.13 0.04 0.02 0.01 0.00 0.00 0.00 0.00 0.01 0.02 0.02 0.06 0.06 0.08 0.09 0.10 0.18 0.38 0.62 0.57 0.47 0.40 0.38 0.64 0.37 0.71 0.48 0.70
0.07 0.01 0.25 0.30 0.21 0.43 0.54 0.31 0.31 0.32 0.11 0.03 0.00 0.00 0.01 0.01 0.00 0.00 0.00 0.00 0.00 0.01 0.03 0.04 0.08 0.10 0.09 0.07 0.09 0.07 0.10 0.15 0.84 0.82 0.39 0.27 0.35 0.25 0.29 0.49 0.58 0.89 0.77 0.68
0.07 0.03 0.06 0.17 0.15 0.28 0.17 0.09 0.13 0.17 0.16 0.04 0.00 0.00 0.00 0.00 0.00 0.00 0.02 0.04 0.02 0.03 0.05 0.09 0.11 0.10 0.10 0.09 0.10 0.21 0.20 0.30 0.41 0.50 0.27 0.35 0.51 0.55 0.32 0.30 0.55 0.47 0.22 0.62
0.03 0.05 0.13 0.25 0.11 0.09 0.04 0.01 0.00 0.00 0.01 0.01 0.01 0.01 0.02 0.01 0.01 0.02 0.04 0.03 0.04 0.07 0.08 0.13 0.16 0.15 0.14 0.21 0.25 0.38 0.58 0.53 0.56 0.27 0.48 0.47 0.47 0.45 0.41 0.44 0.51 nan nan nan
SL_Ratio
nan 6.7 2.9 nan nan nan nan 3.7 5.0 nan nan nan nan nan nan nan nan nan nan nan nan nan nan nan nan nan nan nan nan nan nan nan nan nan nan nan nan nan nan nan nan nan nan nan
4.3 5.2 nan nan nan nan nan 4.8 4.8 nan nan nan nan nan nan nan nan nan nan nan nan nan nan nan nan nan nan nan nan nan nan nan nan nan nan nan nan nan nan nan nan nan nan nan
4.3 nan nan nan 2.7 3.7 3.3 3.5 3.6 5.0 nan nan nan 4.6 nan nan nan nan nan nan nan nan nan nan nan nan nan nan nan nan nan nan nan nan nan nan nan nan nan nan nan nan nan nan
5.2 nan nan 5.0 5.3 2.5 5.6 nan 5.0 2.8 4.0 4.7 nan 4.1 nan nan nan nan nan nan nan nan nan nan nan nan nan nan nan nan nan nan nan nan nan nan nan nan nan nan nan nan nan nan
5.9 4.5 5.3 6.6 6.0 5.0 6.6 5.0 5.9 6.7 3.9 5.1 5.0 7.0 nan nan nan nan nan nan nan nan nan nan nan nan nan nan nan nan nan nan nan nan nan nan nan nan nan nan nan nan nan nan
5.1 nan 5.2 5.4 5.0 5.4 5.7 6.5 6.3 4.6 3.6 5.7 5.0 5.9 nan nan nan nan nan nan nan nan nan nan nan nan nan nan nan nan nan nan nan nan nan nan nan nan nan nan nan nan nan nan
4.4 4.8 4.4 5.3 5.9 5.4 5.2 5.7 6.0 5.9 6.4 6.3 nan 3.6 nan nan nan nan nan nan nan nan nan nan nan nan nan nan nan nan nan nan nan nan nan nan nan nan nan nan nan nan nan nan
5.8 5.2 5.4 4.2 5.6 7.0 6.3 6.2 6.1 8.1 7.0 6.2 nan 5.1 nan nan nan nan nan nan nan nan nan nan nan nan nan nan nan nan nan nan nan nan nan nan nan nan nan nan nan nan nan nan
7.2 6.2 4.6 5.0 5.0 5.2 6.6 5.5 nan 5.4 5.1 5.2 4.2 4.4 nan nan nan nan nan nan nan nan nan nan nan nan nan nan nan nan nan nan nan nan nan nan nan nan nan nan nan nan nan nan
7.4 8.1 4.4 4.6 4.2 4.6 5.6 nan 5.2 4.2 6.6 7.3 5.4 4.6 5.0 nan nan nan nan nan nan nan nan nan nan nan nan nan nan nan nan nan nan nan nan nan nan nan nan nan nan nan nan nan
5.8 7.8 4.9 5.3 4.2 4.5 5.6 3.7 3.9 3.5 5.3 7.5 7.6 6.1 2.8 nan nan nan nan nan nan nan nan nan nan nan nan nan nan nan nan nan nan nan nan nan nan nan nan nan nan nan nan nan
6.2 8.0 6.6 6.0 4.8 4.4 5.3 5.9 6.5 4.2 5.2 5.3 6.1 6.1 3.1 nan nan nan nan nan nan nan nan nan nan nan nan nan nan nan nan nan nan nan nan nan nan nan nan nan nan nan nan nan
6.9 4.9 5.5 5.7 5.6 4.9 5.8 5.9 6.1 6.4 4.8 5.1 5.6 6.0 5.0 nan nan nan nan nan nan nan nan nan nan nan nan nan nan nan nan nan nan nan nan nan nan nan nan nan nan nan nan nan
nan 7.9 7.7 8.5 7.7 6.3 7.2 5.8 7.1 5.3 5.2 5.8 5.9 5.3 5.8 5.6 2.3 nan nan nan nan nan nan nan nan nan nan nan nan nan nan nan nan nan nan nan nan nan nan nan nan nan nan nan
6.9 5.6 8.0 7.3 7.4 6.6 6.4 6.5 6.9 7.1 6.6 5.7 6.0 5.5 4.4 4.8 2.5 0.0 nan nan nan nan nan nan nan nan nan nan nan nan nan nan nan nan nan nan nan nan nan nan nan nan nan nan
7.0 4.8 8.4 5.9 6.2 6.5 7.0 7.4 6.8 6.7 7.2 6.1 5.7 5.7 5.8 4.7 3.6 2.6 2.5 nan nan nan nan nan nan nan nan nan nan nan nan nan nan nan nan nan nan nan nan nan nan nan nan nan
7.4 6.9 4.1 4.7 7.4 7.2 5.8 8.7 7.6 6.8 7.4 6.6 7.8 6.3 5.6 5.8 4.6 3.1 2.5 2.7 3.0 3.3 nan nan nan nan nan nan nan nan nan nan nan nan 2.5 2.5 2.5 2.5 2.5 2.7 3.3 4.4 3.5 2.5
7.2 6.0 4.6 4.5 4.1 6.2 7.5 6.7 6.8 7.6 7.3 7.5 6.8 6.1 5.3 5.2 5.1 4.4 3.9 2.8 2.9 2.6 2.5 2.5 2.6 3.6 6.3 nan nan nan nan nan nan 5.0 4.2 3.3 3.3 4.1 4.4 4.8 4.3 3.9 3.7 3.2
6.3 7.2 4.8 5.6 5.9 6.6 6.5 8.1 8.9 8.8 8.4 7.4 7.8 7.0 5.3 4.1 4.5 5.5 4.9 4.7 4.4 4.8 4.1 4.9 4.8 6.4 5.8 5.9 5.8 5.4 5.7 6.3 6.6 6.7 6.1 5.9 3.3 3.6 3.9 4.2 4.1 4.6 4.5 4.8
3.5 7.2 6.4 4.7 5.2 7.4 9.1 8.0 6.5 6.1 8.4 7.4 6.8 6.8 5.7 2.7 7.8 6.5 4.8 5.9 6.1 6.7 7.1 7.0 7.1 6.6 6.0 5.7 5.4 4.2 4.6 4.6 5.9 6.4 6.2 6.0 4.1 4.2 4.5 4.1 4.6 4.4 4.1 4.2
4.7 4.1 4.8 4.8 4.9 5.6 8.2 7.0 5.0 8.2 9.8 7.4 6.8 6.9 7.8 9.7 7.8 6.2 6.2 6.8 7.0 7.3 7.3 7.0 6.8 7.2 5.3 5.1 5.9 6.6 5.7 6.6 4.6 4.7 4.3 4.9 4.5 5.2 4.2 4.7 5.0 4.9 5.1 5.2
5.8 5.4 5.2 5.0 5.1 6.8 7.4 5.6 11.4 9.3 7.5 7.1 7.1 7.3 8.2 7.3 7.0 7.1 7.3 7.3 7.4 7.8 7.8 5.6 5.9 5.3 5.1 4.3 4.0 5.3 6.8 7.9 8.7 8.6 8.4 7.8 6.5 6.1 6.3 5.6 5.9 5.4 5.8 5.8
6.5 6.6 5.1 7.3 6.4 7.1 7.4 8.2 7.5 7.2 7.3 6.9 7.4 7.7 7.6 8.3 7.7 6.4 6.3 5.9 6.0 5.0 nan nan 4.3 5.8 6.8 6.5 6.3 7.6 8.9 9.0 9.3 7.7 7.1 6.7 6.4 6.2 6.1 5.7 6.5 5.8 6.0 5.8
5.1 5.0 4.6 6.1 6.8 7.6 7.7 7.5 7.4 7.1 6.9 6.2 7.5 7.1 6.7 8.3 8.3 nan nan 0.0 nan 3.9 4.6 5.3 5.8 6.6 6.9 6.8 6.8 6.5 8.1 8.2 6.4 6.4 7.2 7.4 7.0 6.0 6.3 5.3 5.2 5.2 5.7 6.1
3.5 3.9 3.9 6.4 6.7 6.3 6.1 7.8 7.8 7.4 6.5 5.7 nan nan nan nan nan nan 3.5 4.1 3.9 5.5 6.4 7.0 6.9 7.2 7.9 8.1 8.0 7.7 8.0 7.6 7.0 6.8 8.2 7.3 6.3 6.0 7.0 6.7 5.9 6.2 6.4 5.8
4.7 5.4 3.8 5.9 7.2 7.3 7.6 5.8 nan 7.1 7.3 5.9 3.3 3.5 3.6 3.3 3.2 4.2 4.9 4.6 5.2 6.3 7.9 8.5 8.5 9.0 9.9 9.7 9.6 9.0 7.6 7.0 7.5 8.8 8.0 7.2 6.8 7.3 7.4 7.8 8.6 nan nan nan